Location: ???????
(55.4362°N, 38.1183°E)
Time: 17:45:59
(UTC+00:00)

Cosmos 2360 Rocket - Pass Details

Date: 17 June 2021
Orbit: 835 x 843 km, 71.0° (Epoch: 29 July)

Event Time Altitude Azimuth Distance (km) Brightness Sun altitude
Rises 19:46:40 0° 218° (SW) 3,386 5.0 -8.2°
Reaches altitude 10° 19:49:06 10° 220° (SW) 2,454 4.4 -8.4°
Maximum altitude 19:54:45 76° 306° (NW) 870 2.4 -8.7°
Drops below altitude 10° 20:00:24 10° 33° (NNE) 2,463 5.2 -8.9°
Sets 20:02:52 0° 35° (NE) 3,400 5.9 -9.1°
